Regional Weather Roundup
Issued by NWS Little Rock, AR

Home | Current Version | Previous Version | Text Only | Print | Product List | Glossary Off
Versions: 1 2 3 4 5 6 7 8 9 10 11 12 13 14 15 16 17 18 19 20 21 22 23 24 25 26 27 28 29 30 31

000
ASUS44 KLZK 301505
RWRLZK

WEATHER ROUNDUP FOR ARKANSAS
NATIONAL WEATHER SERVICE LITTLE ROCK AR
1000 AM CDT FRI SEP 30 2016

NOTE: "FAIR" INDICATES FEW OR NO CLOUDS BELOW 12,000 FEET WITH NO
SIGNIFICANT WEATHER AND/OR OBSTRUCTIONS TO VISIBILITY.

ARZ001-003-010-029-301600-
NORTHWEST ARKANSAS

CITY           SKY/WX    TMP DP  RH WIND       PRES   REMARKS
FAYETTEVILLE   SUNNY     60  52  74 CALM      30.23S
FORT SMITH     SUNNY     64  51  62 SW9       30.21S
HARRISON       SUNNY     62  52  69 W7        30.21R
BENTONVILLE    SUNNY     61  48  63 CALM      30.24S
ROGERS         SUNNY     59  52  77 CALM      30.23F
SILOAM SPGS    SUNNY     61  46  59 CALM      30.24F
HIGHFILL       SUNNY     63  54  72 N3        30.23S
SPRINGDALE     SUNNY     61  50  67 CALM      30.24S
$$

ARZ004-005-016-301600-
NORTH CENTRAL ARKANSAS

CITY           SKY/WX    TMP DP  RH WIND       PRES   REMARKS
BATESVILLE     SUNNY     64  54  68 NW6       30.16S
FLIPPIN        SUNNY     64  52  63 N3        30.17S
MTN HOME       SUNNY     64  55  72 CALM      30.18S
$$

ARZ040-041-301600-
WEST CENTRAL ARKANSAS

CITY           SKY/WX    TMP DP  RH WIND       PRES   REMARKS
MENA           SUNNY     68  54  60 CALM      30.22S
MOUNT IDA      SUNNY     66  52  60 VRB3      30.18S
$$

ARZ009-017-025-026-028-301600-
NORTHEAST ARKANSAS

CITY           SKY/WX    TMP DP  RH WIND       PRES   REMARKS
CORNING          N/A     66  59  77 N8        30.13S
JONESBORO      PTSUNNY   67  57  70 NW9       30.13R
NEWPORT        SUNNY     66  57  72 N8        30.15R
WALNUT RIDGE   PTSUNNY   66  55  68 N10       30.13S
BLYTHEVILLE    CLOUDY    64  58  80 NW5       30.13R
$$

ARZ022-023-033-042-044-301600-
CENTRAL ARKANSAS

CITY           SKY/WX    TMP DP  RH WIND       PRES   REMARKS
LITTLE ROCK    SUNNY     67  53  60 NW9       30.17S
N LITTLE ROCK    N/A     66  55  69 N6        30.15F
JACKSONVILLE   SUNNY     67  54  62 NW5       30.16S
SEARCY         SUNNY     68  57  68 NW9       30.17
HOT SPRINGS    SUNNY     68  55  63 VRB3      30.18S
RUSSELLVILLE   SUNNY     67  52  58 NW8       30.19S
$$

ARZ036-301600-
EAST ARKANSAS

CITY           SKY/WX    TMP DP  RH WIND       PRES   REMARKS
WEST MEMPHIS   PTSUNNY   69  57  65 N8        30.11S
$$

ARZ050-053-066-070-073-301600-
SOUTHWEST ARKANSAS

CITY           SKY/WX    TMP DP  RH WIND       PRES   REMARKS
ARKADELPHIA    FAIR      69  57  65 N5        30.18S
TEXARKANA      SUNNY     69  52  54 NE6       30.20S
EL DORADO      SUNNY     68  54  60 CALM      30.18F
DE QUEEN       SUNNY     70  57  63 NE3       30.19S
$$

ARZ056-057-069-301600-
SOUTHEAST ARKANSAS

CITY           SKY/WX    TMP DP  RH WIND       PRES   REMARKS
PINE BLUFF     SUNNY     67  54  63 N8        30.17R
STUTTGART      SUNNY     68  54  60 N10       30.16S
MONTICELLO     SUNNY     68  53  58 NW7       30.16S

$$






USA.gov is the U.S. government's official web portal to all federal, state and local government web resources and services.